Content
SEND FEEDBACK

Daily
Averages
Monthly
Summary
Philippines

OLONGAPO, PHILIPPINES


Home > Asia > Philippines
Elevation: 55 feet     Latitude: 14 48N     Longitude: 120 16E

WEATHER
 
SELECT A DAY
Number of Records: 135,020;   Date Range: 7/31/96 - 8/12/14
 
SHARE

PRINT THIS DATA

[ ← Previous Day ]
WEATHER ALMANAC - SEPTEMBER 21, 2013
[ Next Day → ]
[ °C ]   °F
Weather ElementAverageHighLow
Temperature81.8 °F86 °F (9:00 am)77 °F (6:00 pm)
Dewpoint76.8 °F80 °F (8:00 pm)73.4 °F (7:00 am)
Humidity84 %94 % (6:00 pm)74 % (9:00 am)
Barometer29.55 in29.60 in (11:00 pm)29.50 in (2:00 pm)
Wind Speed13.9 mph24.2 mph (9:00 pm)
Weather ElementAverage
Visibility6.2 mi
Wind DirectionWSW (237.6 °)

Weather ElementTotal
Precipitation---
Cooling Degree Days16.5 (Base 65)
Growing Degree Days31.5 (Base 50)
Averaged from 25 records on September 21, 2013
WEATHER CONDITIONS BREAKOUT
WIND DIRECTION BREAKOUT
WEATHER BY HOUR - SEPTEMBER 21, 2013
[ °C ]   °F
Local TimeTemperatureDewpointHumidityBarometerVisibilityWind DirectionWind SpeedGust SpeedPrecipitationEventsConditions
2:00 AM81.0 °F76.0 °F80 %29.55 in7.0 miWest (270°)15.7 mphOvercast
2:00 AM80.6 °F75.2 °F84 %29.56 in6.2 miSSW (200°)16.1 mphOvercast
5:00 AM81.0 °F76.0 °F82 %29.54 in7.0 miWSW (250°)11.2 mphHaze
5:00 AM80.6 °F75.2 °F84 %29.59 in6.2 miWSW (250°)11.5 mphRainRain
6:00 AM82.4 °F77.0 °F84 %29.53 in4.3 miWest (280°)10.4 mphRainRain
7:00 AM80.6 °F73.4 °F79 %29.53 in5.6 miWNW (290°)11.5 mphOvercast
8:00 AM82.4 °F77.0 °F84 %29.56 in5.0 miVariable3.5 mphOvercast
8:00 AM82.0 °F77.0 °F79 %29.57 in5.0 miWest (280°)4.5 mphHaze
9:00 AM86.0 °F77.0 °F74 %29.59 in6.2 miWNW (300°)4.6 mphMostly Cloudy
10:00 AM84.2 °F77.0 °F79 %29.56 in6.2 miWSW (240°)11.5 mphOvercast
11:00 AM82.4 °F77.0 °F84 %29.56 in6.2 miSW (230°)11.5 mphOvercast
12:00 PM82.4 °F77.0 °F84 %29.56 in6.2 miWest (270°)16.1 mphOvercast
1:00 PM84.2 °F78.8 °F84 %29.53 in6.2 miSW (220°)18.4 mphOvercast
2:00 PM84.0 °F78.0 °F76 %29.53 in9.0 miSW (220°)15.7 mphOvercast
2:00 PM82.4 °F77.0 °F84 %29.50 in6.2 miSW (220°)16.1 mphRainRain
3:00 PM82.4 °F77.0 °F84 %29.50 in6.2 miWest (260°)16.1 mphOvercast
4:00 PM82.4 °F77.0 °F84 %29.53 in6.2 miWest (260°)16.1 mphRainLight Rain Showers
5:00 PM82.4 °F75.2 °F79 %29.56 in6.2 miWest (260°)11.5 mphOvercast
6:00 PM77.0 °F75.2 °F94 %29.53 in6.2 miWSW (240°)15.0 mphOvercast
8:00 PM80.6 °F78.8 °F94 %29.56 in6.2 miSW (220°)13.8 mphOvercast
8:00 PM81.0 °F80.0 °F94 %29.57 in7.0 miSW (220°)13.4 mphRainLight Rain Showers
9:00 PM80.6 °F77.0 °F89 %29.59 in6.2 miSW (220°)24.2 mphOvercast
10:00 PM80.6 °F77.0 °F89 %29.56 in6.2 miSW (220°)23.0 mphOvercast
11:00 PM81.0 °F77.0 °F84 %29.60 in7.0 miWest (260°)17.9 mphRainLight Rain Showers
11:00 PM80.6 °F77.0 °F89 %29.59 in6.2 miWest (260°)18.4 mphRainLight Rain Showers
Hourly data recorded from RPLB, located miles away from Olongapo, Philippines







STORIES FROM OUR PARTNERS